Location: Waco, TX
(31.5480°N, 97.1670°W)
Time: 15:28:37
(UTC-05:00)

ISS - Pass Details

Date: 14 August 2019
Orbit: 410 x 421 km, 51.6° (Epoch: 22 August)

Event Time Altitude Azimuth Distance (km) Brightness Sun altitude
Rises 09:36:16 0° 191° (S) 2,335 0.0 33.4°
Reaches altitude 10° 09:38:49 10° 171° (S) 1,480 -0.7 34.0°
Maximum altitude 09:41:06 17° 127° (SE) 1,116 -0.5 34.5°
Drops below altitude 10° 09:43:24 10° 83° (E) 1,490 0.4 35.0°
Sets 09:45:58 0° 63° (ENE) 2,359 0.8 35.5°
